Zurück zum Katalog

STARLINK-32936

AktivKommunikationVLEO
NORAD 63147·PAYLOAD·🇺🇸 United States

Gestartet Mar 3, 2025 von Cape Canaveral Space Force Station

Loading…

Nächste Überflüge (nächste 24 Stunden)

TLE

AktuellSource: CelesTrak SupGP

Epoche: Sep 15, 2026, 03:19 UTC

1 63147C 25043R   26258.13868056 -.00003967  00000+0 -14365-3 0  2581
2 63147  43.0035  33.1751 0001894 270.4463 208.8275 15.27587905    18

Verfolge STARLINK-32936 in Echtzeit mit AllMySat

Download on the App Store